Location: Llansaintffraid
(52.2833°N, 4.1833°W)
Time: 06:49:31
(UTC+00:00)

Daily predictions for brighter satellites

Satellite Brightness Start Highest point End
(mag) Time Altitude Azimuth Time Altitude Azimuth Time Altitude Azimuth
Cosmos 2266 Rocket 4.1 17:20:56 10° N 17:27:11 88° E 17:33:31 10° S
H-2A R/B 3.5 17:25:12 10° E 17:28:58 20° NE 17:32:45 10° N
Cosmos 304 Rocket 4.1 17:24:12 10° SSW 17:28:58 69° WNW 17:33:46 10° NNE
Cosmos 1602 Rocket 4.4 17:26:17 10° NNW 17:30:43 59° W 17:35:06 10° S
CZ-4 R/B 2.7 17:28:17 10° ESE 17:31:03 19° ENE 17:33:49 10° NNE
Cosmos 2263 Rocket 3.9 17:27:30 10° NNW 17:31:08 17° NNE 17:34:45 10° ENE
GEOS 3 Rocket 4.3 17:26:20 10° E 17:31:17 39° NNE 17:36:17 10° NW
Cosmos 1408 4.4 17:31:17 10° NNE 17:33:10 13° ENE 17:35:02 10° E
BREEZE-M DEB (TANK) 3.9 17:30:05 10° WSW 17:33:28 73° SSE 17:45:22 10° ENE
Cosmos 1356 Rocket 3.7 17:29:37 10° SSW 17:33:54 80° WNW 17:38:15 10° NNE
CZ-4C R/B 3.3 17:31:15 10° N 17:34:29 64° WNW 17:37:47 10° SSW
NOSS 3-4 (A) 4.4 17:31:11 10° NW 17:37:14 37° NNE 17:43:54 10° E
NOSS 3-4 (C) 4.4 17:31:18 10° NW 17:37:20 37° NNE 17:43:59 10° E
CZ-4C R/B 3.7 17:32:09 10° WNW 17:37:35 32° N 17:43:59 10° ENE
NOSS 2-2 (D) 4.4 17:34:15 10° NW 17:39:24 81° NE 17:46:37 10° SE
NOAA 12 4.2 17:34:38 10° SSE 17:39:57 87° WSW 17:45:20 10° NNW
Cosmos 1953 Rocket 3.7 17:35:51 10° N 17:40:11 54° ENE 17:44:32 10° SSE
Cosmos 1300 3.2 17:40:11 10° SSE 17:43:42 36° E 17:47:15 10° NNE
SL-4 R/B 1.7 17:42:02 10° W 17:45:33 81° S 17:49:04 11° E
Cosmos 1703 4.5 17:42:51 10° NNW 17:46:40 48° W 17:50:28 10° S
Cosmos 1697 Rocket 4.3 17:44:26 10° SE 17:47:04 13° E 17:49:37 10° ENE
Cosmos 2058 Rocket 3.9 17:43:14 10° SSE 17:47:08 30° E 17:51:03 10° NNE
Cosmos 1331 Rocket 4.1 17:42:15 10° S 17:47:15 54° ESE 17:52:17 10° NNE
Cosmos 1346 Rocket 4.0 17:44:46 10° NNE 17:47:58 22° ENE 17:51:09 10° ESE
USA 305 2.9 17:44:55 10° WNW 17:49:15 80° NNE 17:53:27 11° E
IRS-1C Rocket 4.2 17:44:38 10° SE 17:49:46 55° ENE 17:54:56 10° N
CZ-2D R/B 3.9 17:46:22 10° SE 17:49:48 33° ENE 17:53:16 10° N
NOSS 2-1 (C) 4.4 17:46:55 10° W 17:50:03 34° NNW 17:53:41 10° NE
Cosmos 1825 3.9 17:48:01 10° NNE 17:50:09 14° ENE 17:51:37 12° E
SeaSat 1 3.6 17:46:41 10° E 17:50:43 26° NE 17:54:45 10° NNW
Cosmos 1953 3.8 17:47:25 10° SW 17:51:09 39° WNW 17:54:55 10° N
Cosmos 44 3.7 17:50:09 10° S 17:54:24 41° ESE 17:58:57 10° NE
NOSS 2-1 (D) 4.5 17:52:14 10° W 17:55:20 32° NNW 17:58:56 10° NE
USA 306 2.9 17:51:20 10° WNW 17:55:39 83° NNE 17:59:35 12° ESE
NOAA 11 4.2 17:51:47 10° SSE 17:57:14 85° ENE 18:02:43 10° NNW
USA 215 3.5 17:51:39 11° E 17:57:54 60° N 18:04:19 10° WNW
SAR-Lupe-4 4.0 17:55:01 10° NNE 17:58:25 38° E 18:01:48 10° S
ERS-2 2.0 17:54:56 10° NNE 17:58:36 69° ESE 18:02:13 10° S
ATLAS 2AS CENTAUR R/B 3.6 17:52:03 10° NW 17:59:20 41° NNE 18:05:17 14° E
BREEZE-M R/B 3.4 17:56:06 10° WSW 17:59:30 65° S 18:05:18 13° E
Cosmos 1818 4.4 17:56:37 10° WSW 18:01:54 50° NW 18:07:14 10° NE
Cosmos 968 Rocket 3.6 17:56:58 10° NNW 18:02:07 53° ENE 18:07:10 10° SE
Cosmos 1340 2.7 17:59:24 10° N 18:03:07 53° ENE 18:06:49 10° SSE
Cosmos 2297 Rocket 2.2 18:00:47 10° NNW 18:06:31 81° ENE 18:12:11 10° SSE
COSMO-SKYMED 1 2.9 18:03:01 10° NNE 18:07:11 42° E 18:11:18 10° S
Cosmos 2369 Rocket 3.9 18:02:29 10° W 18:07:26 30° NW 18:12:26 10° NNE
Cosmos 1076 Rocket 4.5 18:04:29 10° N 18:08:04 25° ENE 18:11:36 10° SE
H-2A R/B 3.1 18:04:58 10° N 18:08:59 45° WNW 18:12:55 10° SW
In-Cosmos 22 Rocket 4.1 18:03:53 10° N 18:09:13 62° ENE 18:14:36 10° SSE
Aureole 3 Rocket 3.5 18:08:37 10° SSE 18:12:39 50° E 18:18:14 10° NNE
Cosmos 1110 Rocket 4.0 18:10:39 10° SSW 18:15:54 86° WNW 18:21:10 10° NNE
SAR-Lupe-1 4.1 18:12:47 10° NNE 18:16:21 57° ESE 18:19:53 10° S
S3M 4.5 18:11:22 10° SSE 18:16:49 35° E 18:22:20 10° NNE
Cosmos 1302 Rocket 4.1 18:13:09 10° S 18:18:15 53° ESE 18:23:25 10° NNE
SL-08 ROCKET BODY 4.5 18:12:52 10° N 18:18:53 57° ENE 18:24:56 10° SSE
Lacrosse 5 2.4 18:15:06 10° W 18:20:02 50° N 18:23:30 19° ENE
FALCON 9 DEB 3.1 18:16:54 10° W 18:20:20 80° N 18:22:07 26° E
ERBS 3.3 18:19:18 10° WNW 18:22:25 35° N 18:24:02 22° NE
FALCON 9 DEB 3.9 18:19:28 10° SW 18:22:26 34° SSE 18:23:30 26° ESE
Cosmos 1486 Rocket 4.0 18:17:17 10° NNW 18:22:40 76° ENE 18:28:00 10° SSE
Cosmos 292 Rocket 3.7 18:18:34 10° SSW 18:23:22 81° ESE 18:28:14 10° NNE
Okean O Rocket 3.6 18:19:37 10° SSW 18:23:32 32° W 18:27:28 10° NNW
YAOGAN 1 2.6 18:20:39 10° SE 18:24:52 53° ENE 18:29:06 10° N
Aureole 3 2.5 18:23:10 10° S 18:26:12 60° E 18:29:08 10° NNE
FALCON 9 DEB 3.7 18:23:36 10° SW 18:26:35 37° SSE 18:27:30 29° ESE
ADEOS Rocket 4.2 18:22:35 10° N 18:28:34 49° WNW 18:35:10 10° SW
SKYMED 3 4.5 18:26:56 10° NNE 18:31:17 70° ESE 18:35:37 10° S
Cosmos 1455 3.3 18:28:59 10° SSE 18:31:13 24° ESE 18:31:13 24° ESE
Cosmos 1503 Rocket 4.1 18:27:19 10° NNW 18:32:28 57° ENE 18:37:12 12° SE
Meteor 2-8 Rocket 4.4 18:26:25 10° S 18:32:29 71° E 18:38:37 10° NNE
CZ-2C R/B 3.2 18:29:19 10° SSE 18:35:03 68° ENE 18:40:37 10° N
Cosmos 1726 Rocket 3.9 18:31:20 10° SSW 18:35:40 68° WNW 18:40:04 10° N
Cosmos 2219 3.7 18:31:07 10° NW 18:36:50 63° WSW 18:42:29 10° SSE
CZ-4B R/B 2.6 18:34:04 10° N 18:37:11 42° WNW 18:40:12 10° SW
USA 307 3.0 18:34:19 10° WNW 18:38:37 73° SSW 18:40:52 27° ESE
FALCON 9 DEB 3.5 18:35:34 10° SW 18:38:39 42° SSE 18:39:10 38° SE
Cosmos 1943 Rocket 4.4 18:38:10 10° WNW 18:41:40 17° NNW 18:45:10 10° NNE
Cosmos 1939 Rocket 3.6 18:37:48 10° S 18:41:41 53° W 18:45:32 10° NNW
Cosmos 2228 4.2 18:38:29 10° SSW 18:42:34 44° WNW 18:46:42 10° N
USA 308 3.0 18:39:10 10° WNW 18:43:27 70° SSW 18:45:31 29° SE
Cosmos 1354 Rocket 4.0 18:38:49 10° NNW 18:44:03 61° ENE 18:47:52 18° SE
Meteor 2-10 Rocket 3.6 18:40:28 10° S 18:45:34 51° E 18:50:32 10° NNE
Cosmos 2082 3.6 18:39:49 10° NNW 18:45:35 78° ENE 18:50:45 13° SE
Cosmos 1553 Rocket 3.9 18:39:51 10° S 18:46:10 75° E 18:52:26 10° NNE
Helios 1A Rocket 3.3 18:45:02 10° S 18:49:08 64° WSW 18:53:14 10° NNW
FALCON 9 DEB 3.2 18:47:03 10° SW 18:50:11 50° SSE 18:50:17 50° SSE
Cosmos 2278 Rocket 4.4 18:48:46 10° NNW 18:50:34 11° N 18:52:22 10° NNE
Cosmos 1689 Rocket 2.4 18:48:39 10° N 18:51:32 63° WNW 18:54:23 10° SSW
ATLAS 5 CENTAUR R/B 3.5 18:48:13 10° WNW 18:52:02 25° N 18:55:00 15° NE
Meteor 2-15 Rocket 4.5 18:48:06 10° S 18:54:04 56° E 19:00:04 10° NNE
SKYMED 2 3.8 18:51:00 10° N 18:55:21 71° WNW 18:59:40 10° SSW
Cosmos 2151 3.7 18:52:55 10° N 18:56:03 33° NE 18:56:03 33° NE
Okean-O 3.0 18:52:32 10° S 18:56:56 64° WSW 19:01:22 10° NNW
Cosmos 1992 Rocket 4.1 18:52:19 10° S 18:57:17 47° ESE 18:59:48 27° NE
ARGOS 3.2 18:54:41 16° SE 18:58:56 60° ENE 19:04:17 10° N
SL-08 RB Rocket 4.0 19:00:38 42° ENE 19:00:43 42° ENE 19:04:59 10° N
Cosmos 1400 Rocket 3.5 18:57:31 10° SSW 19:01:35 58° WNW 19:05:37 10° N
Cosmos 2369 4.1 18:56:51 10° S 19:02:10 41° ESE 19:03:11 37° E
PSLV R/B 4.2 18:58:38 10° N 19:02:50 71° WNW 19:06:58 10° SSW
Cosmos 1844 Rocket 4.3 19:00:44 10° NNW 19:04:34 18° NNE 19:05:18 18° NE
Cosmos 2058 3.0 19:00:52 10° NNW 19:04:58 73° W 19:09:03 10° S
Cosmos 1892 3.6 19:01:16 10° NNW 19:05:03 51° W 19:08:48 10° S
Cosmos 1656 3.6 18:59:33 10° SSW 19:05:08 81° ESE 19:10:04 14° NNE
CZ-4 R/B 2.1 19:01:59 10° S 19:05:46 52° W 19:09:34 10° NNW
Meteor 2-15 4.3 19:00:18 10° S 19:06:27 82° E 19:12:37 10° NNE
H-2A R/B 2.1 19:02:14 10° SSE 19:07:41 87° ENE 19:13:11 10° NNW
Geosat 4.1 19:06:43 41° ENE 19:07:53 50° ESE 19:12:45 10° S
Ariane Rocket 3.4 19:07:51 40° ENE 19:07:56 40° ENE 19:12:39 10° N
Cosmos 1408 2.9 19:05:00 10° NNW 19:08:37 67° W 19:11:40 14° S
Cosmos 1745 Rocket 4.1 19:02:21 10° NNW 19:08:40 80° W 19:15:00 10° S
GEOS 3 Rocket 3.8 19:05:41 23° SE 19:09:03 75° SW 19:14:30 10° NW
Cosmos 220 Rocket 3.9 19:06:13 10° S 19:10:32 62° ESE 19:10:52 59° E
Cosmos 2227 Rocket 3.2 19:05:10 10° NW 19:10:33 46° WSW 19:15:55 10° S
Cosmos 2263 Rocket 2.5 19:11:02 10° NNW 19:16:33 47° NE 19:17:16 44° ENE
CSL-04 Rocket 3.8 19:11:27 10° SSE 19:17:00 80° WSW 19:22:33 10° NNW
Timation 1 Rocket 4.3 19:11:29 10° NNW 19:17:34 89° ENE 19:20:34 32° SSE
Cosmos 1346 Rocket 4.0 19:20:44 10° NNW 19:24:31 42° W 19:28:17 10° SSW
SL-4 R/B 2.2 19:21:28 10° W 19:24:38 56° SW 19:24:38 56° SW
Meteor 2-1 Rocket 4.1 19:19:42 10° S 19:25:13 90° WSW 19:30:48 10° NNE
Cosmos 1825 2.4 19:22:20 10° NNW 19:26:07 66° W 19:26:28 62° SW
CZ-4C R/B 3.2 19:21:13 10° NW 19:27:38 49° NNE 19:29:36 40° ENE
SeaSat 1 2.4 19:26:16 45° SSE 19:27:48 82° WSW 19:32:47 10° NNW
NOSS 3-4 (A) 3.7 19:22:16 10° NW 19:29:05 78° NE 19:31:39 45° ESE
USA 305 3.7 19:25:03 10° WNW 19:29:07 42° SSW 19:29:36 40° SSW
NOSS 3-4 (C) 3.7 19:22:23 10° NW 19:29:11 78° NE 19:31:43 45° ESE
CRYOSAT 2 4.5 19:24:58 10° N 19:29:51 75° W 19:34:41 10° SSW
Cosmos 1697 Rocket 2.5 19:24:26 10° SSW 19:30:01 71° ESE 19:31:25 50° NE
Cosmos 2184 Rocket 4.5 19:25:42 10° N 19:31:04 41° NE 19:31:04 41° NE
Cosmos 1315 Rocket 3.2 19:28:49 10° SSW 19:32:10 59° SW 19:32:10 59° SW
USA 306 3.9 19:31:30 10° WNW 19:35:29 39° SW 19:35:44 38° SSW
Cosmos 44 4.2 19:31:13 10° WSW 19:35:39 44° NW 19:37:30 30° NNE
DEBRIS 4.3 19:19:21 10° WSW 19:35:42 56° SSE 19:36:50 49° SE
Cosmos 1709 Rocket 4.0 19:32:03 10° NNW 19:38:27 82° W 19:44:29 12° S
USA 215 3.2 19:39:00 54° ESE 19:40:43 83° NNE 19:47:17 10° WNW
NOSS 3-3 (A) 3.8 19:35:01 10° SSW 19:40:53 69° SE 19:41:47 61° E
NOSS 3-3 (C) 3.8 19:35:08 10° SSW 19:41:01 69° SE 19:41:53 61° E
SJ 16-02 3.4 19:39:42 10° N 19:41:07 17° N 19:41:07 17° N
MOS 1 Rocket 3.6 19:41:42 10° N 19:46:17 67° WNW 19:51:09 10° SSW
ATLAS 2AS CENTAUR R/B 2.7 19:43:38 10° NW 19:51:19 82° NE 19:52:43 62° ESE
Cosmos 1777 Rocket 3.9 19:46:12 10° NNW 19:51:06 78° NNW 19:51:06 78° NNW
Cosmos 2074 Rocket 4.2 19:45:51 10° N 19:51:03 52° NE 19:51:03 52° NE
Cosmos 1980 Rocket 3.7 19:47:12 10° SSW 19:49:11 22° S 19:49:11 22° S
IRS-1A Rocket 4.1 19:53:27 85° ESE 19:53:34 86° ENE 19:59:08 10° NNW
COSMOS 2455 4.2 19:50:06 10° NNW 19:55:08 26° NNE 19:55:08 26° NNE
Meteor 2-17 Rocket 4.3 19:49:07 10° N 19:55:02 75° ENE 19:55:02 75° ENE
Cosmos 883 Rocket 4.5 19:51:03 10° SSW 19:57:13 77° WNW 20:03:23 10° N
Resurs 01 Rocket 4.1 20:02:02 13° N 20:02:02 13° N 20:02:39 10° N
MOS 1 4.2 20:00:46 84° N 20:00:46 84° N 20:06:19 10° NNW
Cosmos 2315 Rocket 3.9 19:55:15 10° S 20:01:27 85° W 20:07:42 10° N
MetOp-A 4.2 20:03:23 70° NNW 20:03:23 70° NNW 20:08:07 10° NNW
Lacrosse 5 2.4 19:58:31 10° WNW 20:02:41 54° NNW 20:02:41 54° NNW
Cosmos 2227 4.2 19:58:30 10° NNW 20:03:41 76° NNW 20:03:41 76° NNW
Cosmos 1455 4.4 20:04:29 10° SW 20:06:17 22° WSW 20:06:17 22° WSW
Cosmos 2360 4.4 20:03:30 10° SSW 20:08:21 65° SW 20:08:21 65° SW
Meteor 2-3 Rocket 3.9 20:11:49 10° NNW 20:17:03 69° WNW 20:17:03 69° WNW
Cosmos 2278 Rocket 4.3 20:33:11 10° NNW 20:35:28 17° N 20:35:28 17° N
ATLAS 5 CENTAUR R/B 3.8 20:33:49 10° NW 20:36:32 24° NNW 20:36:32 24° NNW
Cosmos 1844 Rocket 4.3 20:44:14 10° NNW 20:46:58 28° NNW 20:46:58 28° NNW
Cosmos 2263 Rocket 3.6 20:55:10 10° NW 20:58:58 34° WNW 20:58:58 34° WNW
Cosmos 1697 Rocket 4.5 21:09:35 10° WSW 21:13:13 27° WNW 21:13:13 27° WNW
CZ-4C R/B 3.5 21:09:42 10° NW 21:14:47 52° WNW 21:14:47 52° WNW
USA 215 4.5 21:26:21 34° W 21:26:21 34° W 21:30:21 10° WNW
ATLAS 2AS CENTAUR R/B 4.3 21:35:17 10° NW 21:40:09 29° W 21:40:09 29° W
